Meridian, MS

3:04 PM CST on December 09, 2019 (GMT -0600)
Key

Weather History for KMEI - October, 2019

Change the Weather History Date:

Tuesday, October 22, 2019

  Actual Average Record
Temperature  
Mean Temperature 60 °F 62 °F  
Max Temperature 73 °F 75 °F 90 °F (1963)
Min Temperature 45 °F 49 °F 29 °F (1987)
Degree Days  
Heating Degree Days 6 5  
Month to date heating degree days 31 62  
Since 1 July heating degree days 31 69  
Cooling Degree Days 0 2  
Month to date cooling degree days 203 76  
Year to date cooling degree days 2835 1999  
Growing Degree Days 10 (Base 50)    
Moisture  
Dew Point 50 °F    
Average Humidity 75    
Maximum Humidity 100    
Minimum Humidity 23    
Precipitation  
Precipitation 0.00 in 0.13 in 1.67 in (2007)
Month to date precipitation 4.93 2.61  
Year to date precipitation 48.11 45.00  
Sea Level Pressure  
Sea Level Pressure 30.07 in    
Wind  
Wind Speed 4 mph ()    
Max Wind Speed 20 mph    
Max Gust Speed 26 mph    
Visibility 7.0 miles    
Events Fog    
T = Trace of Precipitation, MM = Missing Value Source: Averaged Metar Reports

Daily Weather History Graph

Daily Weather History Graph

Search for Another Location

Airport or City:

Astronomy

Oct. 22, 2019 Rise Set
Actual Time 7:03 AM CDT 6:14 PM CDT
Civil Twilight 6:38 AM CDT 6:39 PM CDT
Nautical Twilight 6:10 AM CDT 7:08 PM CDT
Astronomical Twilight 5:41 AM CDT 7:36 PM CDT
Moon 12:41 AM CDT (10/22) 2:57 PM CDT (10/22)
Length of Visible Light 12h 00m
Length of Day
11h 10m
Last Quarter, 37% of the Moon is Illuminated
Oct 22
Last Quarter
Oct 27
New
Nov 4
First Quarter
Nov 12
Full
Nov 19
Last Quarter

Hourly Weather History & Observations

Time (CDT) Temp. Dew Point Humidity Pressure Visibility Wind Dir Wind Speed Gust Speed Precip Events Conditions
12:58 AM 66.0 °F 63.0 °F 90% 29.94 in 10.0 mi NW 8.1 mph - N/A   Mostly Cloudy
1:58 AM 64.0 °F 61.0 °F 90% 29.97 in 10.0 mi WNW 5.8 mph - N/A   Mostly Cloudy
2:58 AM 63.0 °F 60.1 °F 90% 30.00 in 10.0 mi NW 4.6 mph - N/A   Mostly Cloudy
3:07 AM 63.0 °F 59.0 °F 87% 30.00 in 10.0 mi NW 8.1 mph - N/A   Mostly Cloudy
3:14 AM 62.1 °F 59.0 °F 90% 30.00 in 10.0 mi NW 8.1 mph - N/A   Scattered Clouds
3:58 AM 60.1 °F 57.0 °F 90% 29.99 in 10.0 mi NNW 3.5 mph - N/A   Clear
4:58 AM 59.0 °F 55.9 °F 90% 30.01 in 10.0 mi NW 3.5 mph - N/A   Clear
5:47 AM 57.0 °F 54.0 °F 89% 30.04 in 1.5 mi Calm Calm - N/A   Clear
5:56 AM 57.2 °F 53.6 °F 88% 30.04 in 0.5 mi Calm Calm - N/A Fog Fog
5:58 AM 57.0 °F 54.0 °F 89% 30.03 in 0.5 mi Calm Calm - N/A Fog Fog
6:06 AM 55.9 °F 54.0 °F 93% 30.04 in 0.5 mi Calm Calm - N/A Fog Fog
6:13 AM 55.9 °F 53.1 °F 90% 30.04 in 0.2 mi Calm Calm - N/A Fog Fog
6:44 AM 54.0 °F 52.0 °F 93% 30.05 in 0.5 mi South 3.5 mph - N/A Fog Fog
6:56 AM 53.6 °F 51.8 °F 94% 30.06 in 0.5 mi SSW 3.5 mph - N/A Fog Fog
6:58 AM 54.0 °F 52.0 °F 93% 30.05 in 0.5 mi South 3.5 mph - N/A Fog Fog
7:16 AM 54.0 °F 52.0 °F 93% 30.06 in 0.2 mi Calm Calm - N/A Fog Fog
7:37 AM 54.0 °F 51.1 °F 90% 30.07 in 0.2 mi Calm Calm - N/A Fog Fog
7:58 AM 54.0 °F 53.1 °F 97% 30.07 in 0.5 mi Calm Calm - N/A Fog Fog
8:16 AM 55.9 °F 54.0 °F 93% 30.08 in 10.0 mi Calm Calm - N/A   Clear
8:58 AM 59.0 °F 55.9 °F 90% 30.10 in 10.0 mi Calm Calm - N/A   Clear
9:58 AM 64.9 °F 52.0 °F 63% 30.11 in 10.0 mi NW 4.6 mph - N/A   Clear
10:58 AM 69.1 °F 46.9 °F 45% 30.11 in 10.0 mi West 8.1 mph - N/A   Clear
11:58 AM 71.1 °F 44.1 °F 38% 30.11 in 10.0 mi NNW 10.4 mph - N/A   Clear
12:58 PM 72.0 °F 39.9 °F 31% 30.10 in 10.0 mi NW 16.1 mph 23.0 mph N/A   Clear
1:58 PM 72.0 °F 37.0 °F 28% 30.08 in 10.0 mi West 12.7 mph 26.5 mph N/A   Clear
2:58 PM 73.0 °F 34.0 °F 24% 30.07 in 10.0 mi WNW 16.1 mph 24.2 mph N/A   Clear
3:58 PM 72.0 °F 33.1 °F 24% 30.08 in 10.0 mi WNW 9.2 mph 23.0 mph N/A   Clear
4:58 PM 70.0 °F 37.9 °F 31% 30.08 in 10.0 mi NW 10.4 mph - N/A   Clear
5:58 PM 64.9 °F 39.0 °F 39% 30.10 in 10.0 mi WNW 4.6 mph - N/A   Clear
6:58 PM 57.0 °F 44.1 °F 62% 30.12 in 10.0 mi West 3.5 mph - N/A   Clear
7:58 PM 54.0 °F 46.0 °F 75% 30.13 in 10.0 mi Calm Calm - N/A   Clear
8:58 PM 50.0 °F 44.1 °F 80% 30.14 in 10.0 mi Calm Calm - N/A   Clear
9:58 PM 48.0 °F 44.1 °F 86% 30.16 in 10.0 mi Calm Calm - N/A   Clear
10:58 PM 48.0 °F 44.1 °F 86% 30.17 in 10.0 mi SSW 3.5 mph - N/A   Clear
11:58 PM 46.9 °F 43.0 °F 86% 30.16 in 10.0 mi Calm Calm - N/A   Clear